Miscellaneous Local Product
Issued by NWS Hastings, NE

Home | Current Version | Previous Version | Text Only | Print | Product List | Glossary On
Versions: 1 2 3 4 5 6 7 8 9 10 11 12 13 14 15 16 17 18 19 20 21 22 23 24 25 26 27 28 29 30 31 32 33 34 35 36 37 38 39 40 41 42 43 44 45 46 47 48 49 50
000
AXUS43 KGID 091902
MISGRI

GID CWA HOURLY WEATHER ROUNDUP
NATIONAL WEATHER SERVICE HASTINGS NE
100 PM CST FRI DEC 09 2016

NOTE: "FAIR" INDICATES FEW OR NO CLOUDS BELOW 12,000 FEET WITH NO
SIGNIFICANT WEATHER AND/OR OBSTRUCTIONS TO VISIBILITY.

...SOUTH CENTRAL NEBRASKA...

CITY           SKY/WX    TMP DP  RH WIND       PRES   REMARKS
GRAND ISLAND   CLOUDY    20  11  68 SE15      30.42F WCI   6
HASTINGS       CLOUDY    21  10  62 S15       30.41F WCI   8
KEARNEY        CLOUDY    21  10  63 S17       30.36F WCI   7
ORD            NOT AVBL
YORK           FLURRIES  19  10  68 S10       30.47F WCI   8
AURORA         CLOUDY    20  11  67 S12       30.44F WCI   8
LEXINGTON      CLOUDY    23  11  61 S16       30.31F WCI  10
HOLDREGE       CLOUDY    21  12  67 S18       30.34F WCI   6
HEBRON         CLOUDY    22  11  62 S14       30.47F WCI   9

...NEBRASKA PANHANDLE...

CITY           SKY/WX    TMP DP  RH WIND       PRES   REMARKS
CHADRON        CLOUDY     8  -1  66 VRB5      30.31F WCI   0
ALLIANCE       SUNNY     22   9  57 N8        30.18S WCI  12
SCOTTSBLUFF    SUNNY     26  11  52 N9        30.17F WCI  17
SIDNEY         SUNNY     26  13  57 VRB5      30.13F WCI  20

...WESTERN AND NORTH CENTRAL NEBRASKA...

CITY           SKY/WX    TMP DP  RH WIND       PRES   REMARKS
VALENTINE      CLOUDY    18   7  62 S9        30.33F WCI   7
AINSWORTH      CLOUDY    17   8  65 S6        30.34R WCI   9
ONEILL         FLURRIES  18   9  67 SE7       30.41F WCI   9
BROKEN BOW     CLOUDY    21   8  57 S14       30.31F WCI   8
IMPERIAL       PTSUNNY   24  15  68 S14       30.20F WCI  12
NORTH PLATTE   SUNNY     24  11  57 S14       30.26F WCI  12
MCCOOK         CLOUDY    26  14  60 S12       30.28F WCI  16

...EASTERN NEBRASKA...

CITY           SKY/WX    TMP DP  RH WIND       PRES   REMARKS
NORFOLK        CLOUDY    14   6  70 S6        30.49F WCI   5
SO SIOUX CITY  CLOUDY    16   6  65 CALM      30.56F
TEKAMAH        CLOUDY    15   7  70 CALM      30.56F
COLUMBUS       CLOUDY    18   9  68 SE7       30.50F WCI   8
ALBION         CLOUDY    17   9  72 SE9       30.45F WCI   5
OMAHA EPPLEY   CLOUDY    19   8  62 S5        30.56F WCI  12
OFFUTT AFB     CLOUDY    20  11  68 SE3       30.54F
MILLARD        CLOUDY    21  12  66 CALM      30.55F
LINCOLN        CLOUDY    20  10  65 S6        30.54F WCI  12
NEBRASKA CITY  CLOUDY    21   8  58 S8        30.55F WCI  11
BEATRICE       CLOUDY    24  12  59 SE8       30.51F WCI  16
FALLS CITY     CLOUDY    23  14  68 S6        30.56F WCI  16

...NORTHERN KANSAS...

CITY           SKY/WX    TMP DP  RH WIND       PRES   REMARKS
GOODLAND       SUNNY     30  20  66 S18       30.17F WCI  18
HILL CITY      CLOUDY    28  11  48 S13G25    30.33F WCI  17
NORTON         CLOUDY    28  10  47 S10G16    30.31F WCI  19
PHILLIPSBURG   CLOUDY    27  12  54 SE14      30.38F WCI  15
SMITH CENTER   CLOUDY    23  12  63 S16       30.40F WCI  10
BELOIT         CLOUDY    25  12  58 SE14G20   30.45F WCI  13
HAYS           CLOUDY    26  12  55 S16       30.38F WCI  14
RUSSELL        CLOUDY    25  11  55 S18       30.40F WCI  11
CONCORDIA      CLOUDY    23  13  65 S17G23    30.47F WCI   9
SALINA         CLOUDY    26  13  57 S14       30.50F WCI  14
TOPEKA         CLOUDY    26  12  55 SE6       30.57F WCI  19



USA.gov is the U.S. government's official web portal to all federal, state and local government web resources and services.